"read_dt","SO2 (ppb)","flags","PMT voltage (V)","lamp voltage (V)","lamp intensity (Hz)","internal temp (C)","react chamber temp (C)","sample flow (l/min)","pres (mmHg)","SO2 bkg (ppb)","SO2 coefficient"
2016-01-10 00:00:00,1748E-3,5C000400,-0724,0832,12109,024.1,045.3,0.263,770.1,01.15,0.508
2016-01-10 00:01:00,1782E-3,5C000400,-0724,0832,12092,024.1,045.3,0.263,770.1,01.15,0.508
2016-01-10 00:02:00,1735E-3,5C000400,-0724,0831,12144,024.1,045.3,0.263,770.1,01.15,0.508
2016-01-10 00:03:00,1694E-3,5C000400,-0724,0832,12300,024.2,045.3,0.263,770.1,01.15,0.508
2016-01-10 00:04:00,1654E-3,5C000400,-0724,0832,11976,024.2,045.3,0.263,770.1,01.15,0.508
2016-01-10 00:05:00,1652E-3,5C000400,-0724,0833,12298,024.1,045.3,0.263,770.1,01.15,0.508
2016-01-10 00:06:00,1707E-3,5C000400,-0724,0832,12172,024.1,045.3,0.263,770.1,01.15,0.508
2016-01-10 00:07:00,1774E-3,5C000400,-0724,0832,12074,024.1,045.3,0.263,770.1,01.15,0.508
2016-01-10 00:08:00,1739E-3,5C000400,-0724,0832,12112,024.2,045.3,0.263,770.1,01.15,0.508
2016-01-10 00:09:00,1700E-3,5C000400,-0724,0832,12279,024.2,045.3,0.263,770.1,01.15,0.508
2016-01-10 00:10:00,1742E-3,5C000400,-0724,0833,11995,024.2,045.3,0.263,770.1,01.15,0.508
2016-01-10 00:11:00,1720E-3,5C000400,-0724,0833,12202,024.2,045.3,0.263,770.1,01.15,0.508
2016-01-10 00:12:00,1874E-3,5C000400,-0724,0832,12143,024.2,045.3,0.263,770.1,01.15,0.508
2016-01-10 00:13:00,1651E-3,5C000400,-0724,0832,12128,024.2,045.3,0.262,770.1,01.15,0.508
2016-01-10 00:14:00,1519E-3,5C000400,-0724,0832,12347,024.2,045.3,0.263,770.0,01.15,0.508
2016-01-10 00:15:00,1855E-3,5C000400,-0724,0831,12201,024.2,045.3,0.263,770.0,01.15,0.508
2016-01-10 00:16:00,1737E-3,5C000400,-0724,0831,12179,024.2,045.3,0.263,770.0,01.15,0.508
2016-01-10 00:17:00,1684E-3,5C000400,-0724,0832,12075,024.2,045.3,0.263,770.0,01.15,0.508
2016-01-10 00:18:00,1820E-3,5C000400,-0724,0832,12194,024.2,045.3,0.263,770.0,01.15,0.508
2016-01-10 00:19:00,1656E-3,5C000400,-0724,0832,12200,024.2,045.3,0.263,770.0,01.15,0.508
2016-01-10 00:20:00,1691E-3,5C000400,-0724,0832,12186,024.2,045.3,0.263,770.0,01.15,0.508
2016-01-10 00:21:00,1754E-3,5C000400,-0724,0831,12226,024.2,045.3,0.263,770.0,01.15,0.508
2016-01-10 00:22:00,1768E-3,5C000400,-0724,0832,11952,024.2,045.3,0.262,770.0,01.15,0.508
2016-01-10 00:23:00,1749E-3,5C000400,-0724,0831,12176,024.2,045.3,0.263,770.0,01.15,0.508
2016-01-10 00:24:00,1777E-3,5C000400,-0724,0832,12071,024.2,045.3,0.262,770.0,01.15,0.508
2016-01-10 00:25:00,1826E-3,5C000400,-0724,0832,12185,024.2,045.3,0.263,770.0,01.15,0.508
2016-01-10 00:26:00,1634E-3,5C000400,-0724,0833,12083,024.2,045.3,0.262,770.0,01.15,0.508
2016-01-10 00:27:00,1671E-3,5C000400,-0724,0832,12067,024.2,045.3,0.263,770.0,01.15,0.508
2016-01-10 00:28:00,1766E-3,5C000400,-0724,0832,12150,024.2,045.3,0.262,770.0,01.15,0.508
2016-01-10 00:29:00,1724E-3,5C000400,-0724,0832,12167,024.3,045.3,0.263,770.0,01.15,0.508
2016-01-10 00:30:00,1795E-3,5C000400,-0724,0832,12322,024.2,045.3,0.263,769.9,01.15,0.508
2016-01-10 00:31:00,1870E-3,5C000400,-0724,0831,12187,024.2,045.3,0.263,770.0,01.15,0.508
2016-01-10 00:32:00,1807E-3,5C000400,-0724,0832,12132,024.3,045.3,0.263,769.9,01.15,0.508
2016-01-10 00:33:00,1788E-3,5C000400,-0724,0833,12255,024.3,045.3,0.262,769.9,01.15,0.508
2016-01-10 00:34:00,1693E-3,5C000400,-0724,0833,12190,024.3,045.3,0.263,769.9,01.15,0.508
2016-01-10 00:35:00,1760E-3,5C000400,-0724,0832,12216,024.3,045.3,0.262,769.9,01.15,0.508
2016-01-10 00:36:00,1751E-3,5C000400,-0724,0833,12240,024.3,045.3,0.263,769.9,01.15,0.508
2016-01-10 00:37:00,1766E-3,5C000400,-0724,0833,12196,024.3,045.3,0.262,769.9,01.15,0.508
2016-01-10 00:38:00,1683E-3,5C000400,-0724,0831,12204,024.3,045.3,0.263,769.9,01.15,0.508
2016-01-10 00:39:00,1853E-3,5C000400,-0724,0832,12206,024.3,045.3,0.262,769.9,01.15,0.508
2016-01-10 00:40:00,1712E-3,5C000400,-0724,0832,12112,024.3,045.3,0.263,769.9,01.15,0.508
2016-01-10 00:41:00,1696E-3,5C000400,-0724,0832,12050,024.3,045.3,0.263,769.9,01.15,0.508
2016-01-10 00:42:00,1840E-3,5C000400,-0724,0832,12078,024.3,045.3,0.262,769.9,01.15,0.508
2016-01-10 00:43:00,1855E-3,5C000400,-0724,0832,12164,024.3,045.3,0.263,769.9,01.15,0.508
2016-01-10 00:44:00,1809E-3,5C000400,-0724,0832,12094,024.3,045.3,0.262,769.9,01.15,0.508
2016-01-10 00:45:00,1820E-3,5C000400,-0724,0832,12154,024.3,045.3,0.263,769.9,01.15,0.508
2016-01-10 00:46:00,1795E-3,5C000400,-0724,0831,12149,024.3,045.3,0.262,769.9,01.15,0.508
2016-01-10 00:47:00,1785E-3,5C000400,-0724,0832,12165,024.3,045.3,0.262,769.9,01.15,0.508
2016-01-10 00:48:00,1879E-3,5C000400,-0724,0832,12202,024.3,045.3,0.262,769.9,01.15,0.508
2016-01-10 00:49:00,1811E-3,5C000400,-0724,0832,12091,024.3,045.3,0.262,769.9,01.15,0.508
2016-01-10 00:50:00,1605E-3,5C000400,-0724,0832,12040,024.3,045.3,0.263,769.8,01.15,0.508
2016-01-10 00:51:00,1706E-3,5C000400,-0724,0831,12220,024.3,045.3,0.262,769.8,01.15,0.508
2016-01-10 00:52:00,1652E-3,5C000400,-0724,0832,12260,024.3,045.3,0.263,769.8,01.15,0.508
2016-01-10 00:53:00,1775E-3,5C000400,-0724,0832,12222,024.4,045.3,0.262,769.8,01.15,0.508
2016-01-10 00:54:00,1698E-3,5C000400,-0724,0832,12178,024.3,045.3,0.263,769.8,01.15,0.508
2016-01-10 00:55:00,1635E-3,5C000400,-0724,0832,12123,024.4,045.3,0.262,769.8,01.15,0.508
2016-01-10 00:56:00,1970E-3,5C000400,-0724,0832,12151,024.4,045.3,0.262,769.8,01.15,0.508
2016-01-10 00:57:00,1673E-3,5C000400,-0724,0832,12175,024.4,045.3,0.262,769.8,01.15,0.508
2016-01-10 00:58:00,1744E-3,5C000400,-0724,0832,12209,024.4,045.3,0.262,769.8,01.15,0.508
2016-01-10 00:59:00,1721E-3,5C000400,-0724,0832,12043,024.4,045.3,0.262,769.8,01.15,0.508
2016-01-10 01:00:00,1778E-3,5C000400,-0724,0832,12153,024.4,045.3,0.262,769.8,01.15,0.508
2016-01-10 01:01:00,1807E-3,5C000400,-0724,0832,12066,024.4,045.3,0.263,769.8,01.15,0.508
2016-01-10 01:02:00,1773E-3,5C000400,-0724,0832,12258,024.4,045.3,0.262,769.8,01.15,0.508
2016-01-10 01:03:00,1889E-3,5C000400,-0724,0832,12257,024.4,045.3,0.263,769.8,01.15,0.508
2016-01-10 01:04:00,1656E-3,5C000400,-0724,0832,12140,024.4,045.3,0.262,769.8,01.15,0.508
2016-01-10 01:05:00,1728E-3,5C000400,-0724,0831,12147,024.4,045.3,0.262,769.8,01.15,0.508
2016-01-10 01:06:00,1795E-3,5C000400,-0724,0831,12187,024.4,045.3,0.262,769.8,01.15,0.508
2016-01-10 01:07:00,1741E-3,5C000400,-0724,0831,12131,024.4,045.3,0.262,769.8,01.15,0.508
2016-01-10 01:08:00,1649E-3,5C000400,-0724,0832,12248,024.4,045.3,0.262,769.8,01.15,0.508
2016-01-10 01:09:00,1744E-3,5C000400,-0724,0831,12130,024.4,045.3,0.262,769.9,01.15,0.508
2016-01-10 01:10:00,1783E-3,5C000400,-0724,0831,12125,024.4,045.3,0.262,769.9,01.15,0.508
2016-01-10 01:11:00,1614E-3,5C000400,-0724,0832,12055,024.4,045.3,0.262,769.9,01.15,0.508
2016-01-10 01:12:00,1826E-3,5C000400,-0724,0833,12226,024.4,045.3,0.263,769.9,01.15,0.508
2016-01-10 01:13:00,1691E-3,5C000400,-0724,0831,12107,024.4,045.3,0.262,769.9,01.15,0.508
2016-01-10 01:14:00,1729E-3,5C000400,-0724,0831,11961,024.5,045.3,0.263,769.8,01.15,0.508
2016-01-10 01:15:00,1651E-3,5C000400,-0724,0832,12161,024.4,045.3,0.263,769.8,01.15,0.508
2016-01-10 01:16:00,1855E-3,5C000400,-0724,0832,12113,024.5,045.3,0.262,769.8,01.15,0.508
2016-01-10 01:17:00,1650E-3,5C000400,-0724,0832,12287,024.5,045.3,0.263,769.8,01.15,0.508
2016-01-10 01:18:00,1826E-3,5C000400,-0724,0832,12248,024.4,045.3,0.262,769.9,01.15,0.508
2016-01-10 01:19:00,1785E-3,5C000400,-0724,0833,12228,024.5,045.3,0.262,769.8,01.15,0.508
2016-01-10 01:20:00,1807E-3,5C000400,-0724,0831,12098,024.5,045.3,0.262,769.8,01.15,0.508
2016-01-10 01:21:00,1666E-3,5C000400,-0724,0832,12164,024.5,045.3,0.262,769.8,01.15,0.508
2016-01-10 01:22:00,1720E-3,5C000400,-0724,0833,12158,024.5,045.3,0.262,769.8,01.15,0.508
2016-01-10 01:23:00,1732E-3,5C000400,-0724,0832,12263,024.5,045.3,0.262,769.8,01.15,0.508
2016-01-10 01:24:00,1687E-3,5C000400,-0724,0832,12149,024.5,045.3,0.262,769.8,01.15,0.508
2016-01-10 01:25:00,1754E-3,5C000400,-0724,0831,12165,024.5,045.3,0.262,769.8,01.15,0.508
2016-01-10 01:26:00,1737E-3,5C000400,-0724,0832,12323,024.5,045.3,0.262,769.7,01.15,0.508
2016-01-10 01:27:00,1852E-3,5C000400,-0724,0832,12127,024.5,045.4,0.262,769.7,01.15,0.508
2016-01-10 01:28:00,1650E-3,5C000400,-0724,0833,12172,024.5,045.3,0.262,769.7,01.15,0.508
2016-01-10 01:29:00,1742E-3,5C000400,-0724,0833,12181,024.5,045.3,0.262,769.7,01.15,0.508
2016-01-10 01:30:00,1626E-3,5C000400,-0724,0832,12263,024.5,045.3,0.262,769.8,01.15,0.508
2016-01-10 01:31:00,1610E-3,5C000400,-0724,0832,12049,024.5,045.3,0.262,769.8,01.15,0.508
2016-01-10 01:32:00,1753E-3,5C000400,-0724,0832,12109,024.5,045.3,0.262,769.8,01.15,0.508
2016-01-10 01:33:00,1757E-3,5C000400,-0724,0832,12221,024.5,045.3,0.262,769.7,01.15,0.508
2016-01-10 01:34:00,1701E-3,5C000400,-0724,0832,12179,024.5,045.3,0.262,769.7,01.15,0.508
2016-01-10 01:35:00,1765E-3,5C000400,-0724,0832,12326,024.5,045.3,0.262,769.7,01.15,0.508
2016-01-10 01:36:00,1742E-3,5C000400,-0724,0831,11922,024.5,045.3,0.262,769.7,01.15,0.508
2016-01-10 01:37:00,1881E-3,5C000400,-0724,0832,12195,024.6,045.3,0.262,769.7,01.15,0.508
2016-01-10 01:38:00,1714E-3,5C000400,-0724,0832,12148,024.6,045.3,0.262,769.7,01.15,0.508
2016-01-10 01:39:00,1806E-3,5C000400,-0724,0831,12122,024.5,045.3,0.262,769.7,01.15,0.508
2016-01-10 01:40:00,1726E-3,5C000400,-0724,0832,12027,024.6,045.3,0.262,769.7,01.15,0.508
2016-01-10 01:41:00,1750E-3,5C000400,-0724,0832,12110,024.6,045.3,0.262,769.7,01.15,0.508
2016-01-10 01:42:00,1772E-3,5C000400,-0724,0832,12228,024.5,045.3,0.262,769.7,01.15,0.508
2016-01-10 01:43:00,1673E-3,5C000400,-0724,0833,12197,024.6,045.3,0.262,769.7,01.15,0.508
2016-01-10 01:44:00,1786E-3,5C000400,-0724,0832,12175,024.6,045.3,0.262,769.7,01.15,0.508
2016-01-10 01:45:00,1727E-3,5C000400,-0724,0831,12165,024.6,045.3,0.262,769.7,01.15,0.508
2016-01-10 01:46:00,1827E-3,5C000400,-0724,0832,12216,024.6,045.3,0.262,769.6,01.15,0.508
2016-01-10 01:47:00,1794E-3,5C000400,-0724,0832,12191,024.6,045.3,0.262,769.6,01.15,0.508
2016-01-10 01:48:00,1698E-3,5C000400,-0724,0831,12131,024.6,045.3,0.262,769.6,01.15,0.508
2016-01-10 01:49:00,1708E-3,5C000400,-0724,0831,12153,024.6,045.3,0.262,769.6,01.15,0.508
2016-01-10 01:50:00,1768E-3,5C000400,-0724,0831,12128,024.6,045.3,0.262,769.6,01.15,0.508
2016-01-10 01:51:00,1660E-3,5C000400,-0724,0832,12243,024.6,045.3,0.262,769.6,01.15,0.508
2016-01-10 01:52:00,1669E-3,5C000400,-0724,0832,12413,024.6,045.3,0.262,769.6,01.15,0.508
2016-01-10 01:53:00,1638E-3,5C000400,-0724,0832,12246,024.6,045.3,0.262,769.6,01.15,0.508
2016-01-10 01:54:00,1743E-3,5C000400,-0724,0833,12292,024.6,045.3,0.262,769.6,01.15,0.508
2016-01-10 01:55:00,1564E-3,5C000400,-0724,0831,12151,024.6,045.3,0.262,769.6,01.15,0.508
2016-01-10 01:56:00,1809E-3,5C000400,-0724,0832,12060,024.6,045.3,0.262,769.6,01.15,0.508
2016-01-10 01:57:00,1717E-3,5C000400,-0724,0832,12233,024.6,045.3,0.261,769.5,01.15,0.508
2016-01-10 01:58:00,1925E-3,5C000400,-0724,0832,12303,024.6,045.3,0.262,769.6,01.15,0.508
2016-01-10 01:59:00,1697E-3,5C000400,-0724,0832,12109,024.6,045.3,0.262,769.5,01.15,0.508
2016-01-10 02:00:00,1709E-3,5C000400,-0724,0832,12061,024.6,045.3,0.262,769.5,01.15,0.508
2016-01-10 02:01:00,1755E-3,5C000400,-0724,0832,12159,024.6,045.3,0.262,769.5,01.15,0.508
2016-01-10 02:02:00,1717E-3,5C000400,-0724,0832,12191,024.6,045.3,0.262,769.5,01.15,0.508
2016-01-10 02:03:00,1768E-3,5C000400,-0724,0833,12073,024.6,045.3,0.262,769.5,01.15,0.508
2016-01-10 02:04:00,1776E-3,5C000400,-0724,0832,12201,024.6,045.3,0.262,769.5,01.15,0.508
2016-01-10 02:05:00,1743E-3,5C000400,-0724,0831,12092,024.7,045.3,0.262,769.5,01.15,0.508
2016-01-10 02:06:00,1760E-3,5C000400,-0724,0832,12293,024.7,045.3,0.261,769.6,01.15,0.508
2016-01-10 02:07:00,1811E-3,5C000400,-0724,0832,12165,024.7,045.3,0.262,769.6,01.15,0.508
2016-01-10 02:08:00,1787E-3,5C000400,-0724,0831,12135,024.7,045.3,0.262,769.5,01.15,0.508
2016-01-10 02:09:00,1645E-3,5C000400,-0724,0832,12247,024.7,045.3,0.262,769.5,01.15,0.508
2016-01-10 02:10:00,1683E-3,5C000400,-0724,0832,12150,024.7,045.3,0.262,769.6,01.15,0.508
2016-01-10 02:11:00,1725E-3,5C000400,-0724,0833,12173,024.7,045.3,0.262,769.5,01.15,0.508
2016-01-10 02:12:00,1761E-3,5C000400,-0724,0832,12099,024.7,045.3,0.262,769.6,01.15,0.508
2016-01-10 02:13:00,1702E-3,5C000400,-0724,0833,12206,024.7,045.3,0.261,769.5,01.15,0.508
2016-01-10 02:14:00,1726E-3,5C000400,-0724,0832,12111,024.7,045.3,0.262,769.5,01.15,0.508
2016-01-10 02:15:00,1716E-3,5C000400,-0724,0833,12027,024.7,045.3,0.262,769.5,01.15,0.508
2016-01-10 02:16:00,1716E-3,5C000400,-0724,0832,12125,024.7,045.3,0.262,769.5,01.15,0.508
2016-01-10 02:17:00,1717E-3,5C000400,-0724,0833,12105,024.7,045.3,0.262,769.5,01.15,0.508
2016-01-10 02:18:00,1754E-3,5C000400,-0724,0832,12218,024.7,045.3,0.262,769.5,01.15,0.508
2016-01-10 02:19:00,1798E-3,5C000400,-0724,0832,12152,024.7,045.3,0.262,769.5,01.15,0.508
2016-01-10 02:20:00,1653E-3,5C000400,-0724,0832,12205,024.7,045.3,0.262,769.5,01.15,0.508
2016-01-10 02:21:00,1763E-3,5C000400,-0724,0832,12154,024.7,045.3,0.262,769.5,01.15,0.508
2016-01-10 02:22:00,1782E-3,5C000400,-0724,0832,12204,024.7,045.3,0.261,769.5,01.15,0.508
2016-01-10 02:23:00,1742E-3,5C000400,-0724,0832,12151,024.7,045.3,0.262,769.5,01.15,0.508
2016-01-10 02:24:00,1655E-3,5C000400,-0724,0832,11998,024.8,045.3,0.261,769.5,01.15,0.508
2016-01-10 02:25:00,1662E-3,5C000400,-0724,0832,12060,024.8,045.3,0.262,769.5,01.15,0.508
2016-01-10 02:26:00,1782E-3,5C000400,-0724,0832,12158,024.7,045.3,0.262,769.4,01.15,0.508
2016-01-10 02:27:00,1953E-3,5C000400,-0724,0833,12262,024.7,045.3,0.262,769.5,01.15,0.508
2016-01-10 02:28:00,1732E-3,5C000400,-0724,0832,12213,024.7,045.3,0.262,769.4,01.15,0.508
2016-01-10 02:29:00,1768E-3,5C000400,-0724,0832,12147,024.8,045.3,0.262,769.4,01.15,0.508
2016-01-10 02:30:00,1745E-3,5C000400,-0724,0832,12193,024.8,045.3,0.262,769.4,01.15,0.508
2016-01-10 02:31:00,1753E-3,5C000400,-0724,0833,12255,024.8,045.3,0.261,769.4,01.15,0.508
2016-01-10 02:32:00,1832E-3,5C000400,-0724,0832,12202,024.8,045.3,0.262,769.4,01.15,0.508
2016-01-10 02:33:00,1687E-3,5C000400,-0724,0833,12261,024.8,045.3,0.261,769.4,01.15,0.508
2016-01-10 02:34:00,1827E-3,5C000400,-0724,0832,12148,024.8,045.3,0.262,769.4,01.15,0.508
2016-01-10 02:35:00,1691E-3,5C000400,-0724,0832,12275,024.8,045.3,0.261,769.4,01.15,0.508
2016-01-10 02:36:00,1661E-3,5C000400,-0724,0832,12270,024.8,045.3,0.262,769.4,01.15,0.508
2016-01-10 02:37:00,1764E-3,5C000400,-0724,0833,12184,024.8,045.3,0.262,769.4,01.15,0.508
2016-01-10 02:38:00,1671E-3,5C000400,-0724,0832,12191,024.8,045.3,0.262,769.4,01.15,0.508
2016-01-10 02:39:00,1739E-3,5C000400,-0724,0833,12245,024.8,045.3,0.262,769.4,01.15,0.508
2016-01-10 02:40:00,1726E-3,5C000400,-0724,0832,12131,024.8,045.3,0.262,769.4,01.15,0.508
2016-01-10 02:41:00,1786E-3,5C000400,-0724,0832,12244,024.8,045.4,0.262,769.4,01.15,0.508
2016-01-10 02:42:00,1759E-3,5C000400,-0724,0832,12124,024.8,045.4,0.262,769.5,01.15,0.508
2016-01-10 02:43:00,1788E-3,5C000400,-0724,0832,12130,024.8,045.3,0.262,769.5,01.15,0.508
2016-01-10 02:44:00,1657E-3,5C000400,-0724,0832,12148,024.8,045.3,0.261,769.5,01.15,0.508
2016-01-10 02:45:00,1588E-3,5C000400,-0724,0832,12207,024.8,045.4,0.262,769.5,01.15,0.508
2016-01-10 02:46:00,1640E-3,5C000400,-0724,0832,12145,024.8,045.4,0.261,769.5,01.15,0.508
2016-01-10 02:47:00,1747E-3,5C000400,-0724,0833,12254,024.8,045.3,0.262,769.4,01.15,0.508
2016-01-10 02:48:00,1703E-3,5C000400,-0724,0832,12138,024.8,045.3,0.261,769.4,01.15,0.508
2016-01-10 02:49:00,1639E-3,5C000400,-0724,0833,12110,024.8,045.3,0.262,769.4,01.15,0.508
2016-01-10 02:50:00,1865E-3,5C000400,-0724,0832,12250,024.8,045.3,0.261,769.4,01.15,0.508
2016-01-10 02:51:00,1712E-3,5C000400,-0724,0831,12142,024.9,045.3,0.262,769.4,01.15,0.508
2016-01-10 02:52:00,1823E-3,5C000400,-0724,0832,12118,024.9,045.3,0.261,769.4,01.15,0.508
2016-01-10 02:53:00,1731E-3,5C000400,-0724,0832,12327,024.8,045.3,0.262,769.4,01.15,0.508
2016-01-10 02:54:00,1759E-3,5C000400,-0724,0832,12126,024.9,045.3,0.261,769.4,01.15,0.508
2016-01-10 02:55:00,1780E-3,5C000400,-0724,0832,12193,024.9,045.3,0.262,769.4,01.15,0.508
2016-01-10 02:56:00,1641E-3,5C000400,-0724,0832,12294,024.9,045.3,0.261,769.4,01.15,0.508
2016-01-10 02:57:00,1832E-3,5C000400,-0724,0832,12141,024.9,045.4,0.262,769.4,01.15,0.508
2016-01-10 02:58:00,1801E-3,5C000400,-0724,0832,12124,024.9,045.3,0.261,769.4,01.15,0.508
2016-01-10 02:59:00,1641E-3,5C000400,-0724,0832,12174,024.9,045.4,0.262,769.4,01.15,0.508
2016-01-10 03:00:00,1722E-3,5C000400,-0724,0833,12270,024.9,045.4,0.261,769.4,01.15,0.508
2016-01-10 03:01:00,1737E-3,5C000400,-0724,0833,12278,024.9,045.3,0.262,769.4,01.15,0.508
2016-01-10 03:02:00,1789E-3,5C000400,-0724,0832,12246,024.9,045.3,0.261,769.4,01.15,0.508
2016-01-10 03:03:00,1793E-3,5C000400,-0724,0833,12215,024.9,045.4,0.262,769.3,01.15,0.508
2016-01-10 03:04:00,1814E-3,5C000400,-0724,0832,11944,024.9,045.3,0.261,769.3,01.15,0.508
2016-01-10 03:05:00,1752E-3,5C000400,-0724,0832,12111,024.9,045.3,0.262,769.3,01.15,0.508
2016-01-10 03:06:00,1764E-3,5C000400,-0724,0833,12237,024.9,045.3,0.261,769.3,01.15,0.508
2016-01-10 03:07:00,1730E-3,5C000400,-0724,0832,12213,025.0,045.3,0.262,769.3,01.15,0.508
2016-01-10 03:08:00,1773E-3,5C000400,-0724,0832,12170,024.9,045.4,0.261,769.3,01.15,0.508
2016-01-10 03:09:00,1728E-3,5C000400,-0724,0832,12118,024.9,045.4,0.262,769.3,01.15,0.508
2016-01-10 03:10:00,1725E-3,5C000400,-0724,0833,12059,025.0,045.3,0.261,769.3,01.15,0.508
2016-01-10 03:11:00,1864E-3,5C000400,-0724,0832,12200,025.0,045.3,0.262,769.3,01.15,0.508
2016-01-10 03:12:00,1681E-3,5C000400,-0724,0833,12134,024.9,045.3,0.261,769.3,01.15,0.508
2016-01-10 03:13:00,1800E-3,5C000400,-0724,0832,12192,025.0,045.3,0.261,769.2,01.15,0.508
2016-01-10 03:14:00,1874E-3,5C000400,-0724,0832,12222,025.0,045.3,0.262,769.1,01.15,0.508
2016-01-10 03:15:00,1738E-3,5C000400,-0724,0832,12345,024.9,045.3,0.262,769.1,01.15,0.508
2016-01-10 03:16:00,1771E-3,5C000400,-0724,0832,12018,025.0,045.3,0.262,769.3,01.15,0.508
2016-01-10 03:17:00,1871E-3,5C000400,-0724,0832,12112,025.0,045.4,0.261,769.2,01.15,0.508
2016-01-10 03:18:00,1673E-3,5C000400,-0724,0832,12224,025.0,045.4,0.262,769.3,01.15,0.508
2016-01-10 03:19:00,1719E-3,5C000400,-0724,0833,12280,025.0,045.4,0.261,769.3,01.15,0.508
2016-01-10 03:20:00,1796E-3,5C000400,-0724,0832,12045,025.0,045.4,0.262,769.3,01.15,0.508
2016-01-10 03:21:00,1827E-3,5C000400,-0724,0832,12144,025.0,045.3,0.261,769.3,01.15,0.508
2016-01-10 03:22:00,1684E-3,5C000400,-0724,0832,12184,025.0,045.3,0.261,769.3,01.15,0.508
2016-01-10 03:23:00,1668E-3,5C000400,-0724,0833,12073,025.0,045.3,0.261,769.3,01.15,0.508
2016-01-10 03:24:00,1785E-3,5C000400,-0724,0832,12205,025.0,045.4,0.261,769.3,01.15,0.508
2016-01-10 03:25:00,1848E-3,5C000400,-0724,0832,12124,025.0,045.4,0.261,769.3,01.15,0.508
2016-01-10 03:26:00,1734E-3,5C000400,-0724,0832,12153,025.0,045.3,0.261,769.3,01.15,0.508
2016-01-10 03:27:00,1698E-3,5C000400,-0724,0832,12214,025.0,045.3,0.261,769.3,01.15,0.508
2016-01-10 03:28:00,1827E-3,5C000400,-0724,0832,12285,025.0,045.3,0.261,769.3,01.15,0.508
2016-01-10 03:29:00,1887E-3,5C000400,-0724,0832,12258,025.0,045.3,0.261,769.3,01.15,0.508
2016-01-10 03:30:00,1851E-3,5C000400,-0724,0832,12199,025.0,045.3,0.261,769.3,01.15,0.508
2016-01-10 03:31:00,1696E-3,5C000400,-0724,0832,12141,025.0,045.3,0.261,769.3,01.15,0.508
2016-01-10 03:32:00,1723E-3,5C000400,-0724,0833,12241,025.0,045.3,0.261,769.2,01.15,0.508
2016-01-10 03:33:00,1829E-3,5C000400,-0724,0832,12255,025.0,045.4,0.261,769.2,01.15,0.508
2016-01-10 03:34:00,1739E-3,5C000400,-0724,0832,12190,025.1,045.4,0.261,769.2,01.15,0.508
2016-01-10 03:35:00,1745E-3,5C000400,-0724,0833,12214,025.1,045.3,0.261,769.2,01.15,0.508
2016-01-10 03:36:00,1755E-3,5C000400,-0724,0833,12317,025.1,045.3,0.261,769.2,01.15,0.508
2016-01-10 03:37:00,1710E-3,5C000400,-0724,0832,12178,025.0,045.3,0.261,769.2,01.15,0.508
2016-01-10 03:38:00,1738E-3,5C000400,-0724,0833,12221,025.1,045.3,0.261,769.2,01.15,0.508
2016-01-10 03:39:00,1662E-3,5C000400,-0724,0833,12252,025.1,045.4,0.261,769.1,01.15,0.508
2016-01-10 03:40:00,1698E-3,5C000400,-0724,0832,12133,025.1,045.4,0.261,769.1,01.15,0.508
2016-01-10 03:41:00,1721E-3,5C000400,-0724,0833,12049,025.1,045.3,0.261,769.1,01.15,0.508
2016-01-10 03:42:00,1590E-3,5C000400,-0724,0832,12248,025.1,045.3,0.261,769.1,01.15,0.508
2016-01-10 03:43:00,1722E-3,5C000400,-0724,0833,12245,025.1,045.3,0.261,769.1,01.15,0.508
2016-01-10 03:44:00,1699E-3,5C000400,-0724,0832,12068,025.1,045.4,0.261,769.1,01.15,0.508
2016-01-10 03:45:00,1806E-3,5C000400,-0724,0832,12138,025.1,045.4,0.261,769.1,01.15,0.508
2016-01-10 03:46:00,1755E-3,5C000400,-0724,0833,12315,025.1,045.3,0.261,769.1,01.15,0.508
2016-01-10 03:47:00,1775E-3,5C000400,-0724,0833,12206,025.1,045.3,0.261,769.1,01.15,0.508
2016-01-10 03:48:00,1818E-3,5C000400,-0724,0832,12092,025.1,045.3,0.261,769.1,01.15,0.508
2016-01-10 03:49:00,1731E-3,5C000400,-0724,0832,12099,025.1,045.3,0.261,769.1,01.15,0.508
2016-01-10 03:50:00,1744E-3,5C000400,-0724,0832,12135,025.1,045.3,0.261,769.1,01.15,0.508
2016-01-10 03:51:00,1795E-3,5C000400,-0724,0832,12137,025.1,045.3,0.261,769.1,01.15,0.508
2016-01-10 03:52:00,1670E-3,5C000400,-0724,0832,12121,025.2,045.3,0.261,769.1,01.15,0.508
2016-01-10 03:53:00,1845E-3,5C000400,-0724,0833,12266,025.2,045.4,0.261,769.1,01.15,0.508
2016-01-10 03:54:00,1900E-3,5C000400,-0724,0832,12200,025.1,045.4,0.261,769.1,01.15,0.508
2016-01-10 03:55:00,1729E-3,5C000400,-0724,0833,12332,025.1,045.3,0.261,769.1,01.15,0.508
2016-01-10 03:56:00,1718E-3,5C000400,-0724,0832,12233,025.1,045.3,0.261,769.1,01.15,0.508
2016-01-10 03:57:00,1772E-3,5C000400,-0724,0832,12259,025.2,045.3,0.261,769.1,01.15,0.508
2016-01-10 03:58:00,1738E-3,5C000400,-0724,0832,12257,025.2,045.4,0.261,769.1,01.15,0.508
2016-01-10 03:59:00,1773E-3,5C000400,-0724,0832,12144,025.2,045.3,0.261,769.1,01.15,0.508
2016-01-10 04:00:00,1773E-3,5C000400,-0724,0832,12268,025.2,045.3,0.261,769.1,01.15,0.508
2016-01-10 04:01:00,1729E-3,5C000400,-0724,0832,12283,025.2,045.4,0.261,769.1,01.15,0.508
2016-01-10 04:02:00,1832E-3,5C000400,-0724,0832,12144,025.2,045.4,0.261,769.1,01.15,0.508
2016-01-10 04:03:00,1732E-3,5C000400,-0724,0832,12162,025.2,045.3,0.261,769.1,01.15,0.508
2016-01-10 04:04:00,1746E-3,5C000400,-0724,0832,12196,025.2,045.4,0.261,769.1,01.15,0.508
2016-01-10 04:05:00,1787E-3,5C000400,-0724,0832,12033,025.2,045.4,0.261,769.1,01.15,0.508
2016-01-10 04:06:00,1636E-3,5C000400,-0724,0832,12079,025.2,045.3,0.261,769.1,01.15,0.508
2016-01-10 04:07:00,1696E-3,5C000400,-0724,0833,12352,025.2,045.3,0.261,769.1,01.15,0.508
2016-01-10 04:08:00,1803E-3,5C000400,-0724,0833,12201,025.2,045.4,0.261,769.1,01.15,0.508
2016-01-10 04:09:00,1648E-3,5C000400,-0724,0833,12179,025.2,045.4,0.260,769.1,01.15,0.508
2016-01-10 04:10:00,1743E-3,5C000400,-0724,0832,12127,025.2,045.3,0.261,769.1,01.15,0.508
2016-01-10 04:11:00,1822E-3,5C000400,-0724,0833,12165,025.2,045.3,0.261,769.1,01.15,0.508
2016-01-10 04:12:00,1719E-3,5C000400,-0724,0831,12221,025.2,045.3,0.261,769.1,01.15,0.508
2016-01-10 04:13:00,1780E-3,5C000400,-0724,0832,12182,025.2,045.4,0.261,769.1,01.15,0.508
2016-01-10 04:14:00,1739E-3,5C000400,-0724,0832,12219,025.2,045.4,0.261,769.1,01.15,0.508
2016-01-10 04:15:00,1821E-3,5C000400,-0724,0832,12363,025.2,045.3,0.261,769.1,01.15,0.508
2016-01-10 04:16:00,1617E-3,5C000400,-0724,0833,12120,025.2,045.3,0.261,769.1,01.15,0.508
2016-01-10 04:17:00,1676E-3,5C000400,-0724,0833,12168,025.3,045.3,0.261,769.1,01.15,0.508
2016-01-10 04:18:00,1664E-3,5C000400,-0724,0833,12248,025.3,045.3,0.261,769.1,01.15,0.508
2016-01-10 04:19:00,1776E-3,5C000400,-0724,0833,12295,025.3,045.3,0.261,769.1,01.15,0.508
2016-01-10 04:20:00,1820E-3,5C000400,-0724,0833,12233,025.3,045.3,0.261,769.1,01.15,0.508